TimeCET,TemperatureF,Dew PointF,Humidity,Sea Level PressureIn,VisibilityMPH,Wind Direction,Wind SpeedMPH,Gust SpeedMPH,PrecipitationIn,Events,Conditions,WindDirDegrees,DateUTC
12:00 AM,41.0,35.6,81,29.98,-9999.0,Calm,Calm,-,N/A,,Clear,0,2013-03-03 23:00:00
1:00 AM,41,37,80,29.99,,Calm,Calm,,,,,,2013-03-04 00:00:00
1:00 AM,39.2,35.6,87,29.98,6.2,Calm,Calm,-,N/A,,Partly Cloudy,0,2013-03-04 00:00:00
1:30 AM,37.4,35.6,93,29.98,6.2,Calm,Calm,-,N/A,,Partly Cloudy,0,2013-03-04 00:30:00
2:00 AM,37.4,35.6,93,29.98,6.2,Calm,Calm,-,N/A,,Partly Cloudy,0,2013-03-04 01:00:00
2:30 AM,39.2,39.2,100,29.98,6.2,West,3.5,-,N/A,,Partly Cloudy,270,2013-03-04 01:30:00
3:00 AM,37.4,37.4,100,29.98,6.2,NE,1.2,-,N/A,,Partly Cloudy,50,2013-03-04 02:00:00
3:30 AM,37.4,37.4,100,29.95,6.2,NNE,2.3,-,N/A,,Partly Cloudy,20,2013-03-04 02:30:00
4:00 AM,35.6,35.6,100,29.95,6.2,Calm,Calm,-,N/A,,Partly Cloudy,0,2013-03-04 03:00:00
4:30 AM,35.6,35.6,100,29.95,6.2,Calm,Calm,-,N/A,,Partly Cloudy,0,2013-03-04 03:30:00
5:00 AM,35.6,35.6,100,29.95,6.2,Calm,Calm,-,N/A,,Partly Cloudy,0,2013-03-04 04:00:00
5:30 AM,33.8,33.8,100,29.95,6.2,Calm,Calm,-,N/A,,Partly Cloudy,0,2013-03-04 04:30:00
6:00 AM,35.6,35.6,100,29.95,6.2,Calm,Calm,-,N/A,,Partly Cloudy,0,2013-03-04 05:00:00
6:30 AM,33.8,33.8,100,29.95,6.2,Calm,Calm,-,N/A,,Partly Cloudy,0,2013-03-04 05:30:00
7:00 AM,36,34,87,29.98,,NE,1.2,,,,,40,2013-03-04 06:00:00
7:00 AM,33.8,33.8,100,29.95,6.2,Variable,1.2,-,N/A,,Partly Cloudy,0,2013-03-04 06:00:00
7:30 AM,35.6,35.6,100,29.98,6.2,Variable,1.2,-,N/A,,Partly Cloudy,0,2013-03-04 06:30:00
8:00 AM,35.6,35.6,100,29.98,6.2,Calm,Calm,-,N/A,,Partly Cloudy,0,2013-03-04 07:00:00
8:30 AM,35.6,35.6,100,29.98,6.2,ENE,1.2,-,N/A,,Partly Cloudy,60,2013-03-04 07:30:00
9:30 AM,42.8,41.0,93,29.98,6.2,Calm,Calm,-,N/A,,Scattered Clouds,0,2013-03-04 08:30:00
10:00 AM,46.4,44.6,93,29.98,6.2,Variable,1.2,-,N/A,,Scattered Clouds,0,2013-03-04 09:00:00
10:30 AM,51.8,44.6,76,29.98,6.2,Variable,2.3,-,N/A,,Partly Cloudy,0,2013-03-04 09:30:00
11:00 AM,53.6,44.6,72,29.98,6.2,Calm,Calm,-,N/A,,Scattered Clouds,0,2013-03-04 10:00:00
11:30 AM,53.6,44.6,72,29.95,6.2,NE,1.2,-,N/A,,Scattered Clouds,50,2013-03-04 10:30:00
12:00 PM,53.6,44.6,72,29.95,6.2,ENE,3.5,-,N/A,,Scattered Clouds,70,2013-03-04 11:00:00
12:30 PM,53.6,44.6,72,29.95,6.2,Calm,Calm,-,N/A,,Mostly Cloudy,0,2013-03-04 11:30:00
1:00 PM,58,47,58,29.92,9,SE,8.1,,,,Mostly Cloudy,130,2013-03-04 12:00:00
1:00 PM,55.4,44.6,67,29.95,6.2,ESE,5.8,-,N/A,,Mostly Cloudy,120,2013-03-04 12:00:00
1:30 PM,55.4,46.4,72,29.92,6.2,SE,8.1,-,N/A,,Mostly Cloudy,130,2013-03-04 12:30:00
2:00 PM,55.4,44.6,67,29.92,6.2,ESE,5.8,-,N/A,,Mostly Cloudy,120,2013-03-04 13:00:00
2:30 PM,53.6,44.6,72,29.89,6.2,ESE,3.5,-,N/A,,Mostly Cloudy,120,2013-03-04 13:30:00
3:00 PM,53.6,46.4,77,29.89,6.2,ESE,4.6,-,N/A,,Mostly Cloudy,110,2013-03-04 14:00:00
3:30 PM,53.6,46.4,77,29.89,3.7,ESE,3.5,-,N/A,,Drizzle,120,2013-03-04 14:30:00
4:00 PM,51.8,48.2,88,29.89,3.7,ESE,3.5,-,N/A,,Drizzle,110,2013-03-04 15:00:00
4:30 PM,51.8,51.8,100,29.89,5.0,Variable,2.3,-,N/A,,Light Drizzle,0,2013-03-04 15:30:00
5:00 PM,51.8,51.8,100,29.89,5.0,ESE,4.6,-,N/A,,Light Drizzle,110,2013-03-04 16:00:00
5:30 PM,51.8,51.8,100,29.86,5.0,ESE,5.8,-,N/A,,Drizzle,110,2013-03-04 16:30:00
6:00 PM,51.8,51.8,100,29.86,3.1,ESE,6.9,-,N/A,,Overcast,120,2013-03-04 17:00:00
6:30 PM,51.8,51.8,100,29.86,5.0,ESE,6.9,-,N/A,,Overcast,110,2013-03-04 17:30:00
7:00 PM,54,50,82,29.87,6,ESE,6.9,,,,Mist,120,2013-03-04 18:00:00
7:00 PM,51.8,50.0,94,29.89,5.0,ESE,5.8,-,N/A,,Overcast,120,2013-03-04 18:00:00
7:30 PM,51.8,50.0,94,29.89,5.6,ESE,5.8,-,N/A,,Overcast,110,2013-03-04 18:30:00
8:00 PM,51.8,50.0,94,29.89,5.6,Variable,2.3,-,N/A,,Overcast,0,2013-03-04 19:00:00
8:30 PM,51.8,50.0,94,29.89,6.2,ESE,3.5,-,N/A,,Overcast,110,2013-03-04 19:30:00
9:00 PM,53.6,50.0,88,29.89,6.2,ESE,9.2,-,N/A,,Overcast,110,2013-03-04 20:00:00
9:30 PM,51.8,48.2,88,29.89,6.2,SE,8.1,-,N/A,,Light Drizzle,130,2013-03-04 20:30:00
10:00 PM,51.8,48.2,88,29.89,6.2,ESE,4.6,-,N/A,,Light Drizzle,120,2013-03-04 21:00:00
10:30 PM,51.8,48.2,88,29.86,6.2,ESE,5.8,-,N/A,,Light Drizzle,110,2013-03-04 21:30:00
11:00 PM,51.8,48.2,88,29.86,6.2,ESE,6.9,-,N/A,,Light Drizzle,120,2013-03-04 22:00:00
11:30 PM,51.8,48.2,88,29.86,6.2,ESE,5.8,-,N/A,Rain,Light Rain,110,2013-03-04 22:30:00